Regional Weather Roundup
Issued by NWS

Home | Current Version | Previous Version | Text Only | Print | Product List | Glossary On
Versions: 1 2 3 4 5 6 7 8 9 10 11 12 13 14 15 16 17 18 19 20 21 22 23 24 25 26 27 28 29 30 31 32 33 34 35 36 37 38 39 40 41 42 43 44 45 46 47 48 49 50
000
ASUS44 KMEG 052210
RWRTN
TENNESSEE HOURLY STATE WEATHER ROUNDUP
NATIONAL WEATHER SERVICE MEMPHIS TN
400 PM CST THU MAR 05 2015

TNZ002-004-019-021-049-052-054-088>092-052300-
WEST TENNESSEE

CITY           SKY/WX    TMP DP  RH WIND       PRES   REMARKS
MEMPHIS INTL   MOSUNNY   30  11  45 N13       30.52R WCI  20
NWS MEMPHIS      N/A     29 N/A N/A MISG        N/A
JACKSON        SUNNY     27  12  53 N13       30.50R WCI  16
DYERSBURG      SUNNY     27   1  33 N10       30.54S WCI  17
UNION CITY       N/A     23  12  63 NW13      30.51R WCI  11
PARIS          SUNNY     25   9  50 NW9       30.49R WCI  15
LEXINGTON      SUNNY     28   9  43 N15       30.44S WCI  17
SAVANNAH       SUNNY     28  14  54 N13       30.46R WCI  18
$$

TNZ008-025-027-028-033-062-065-066-052300-
NORTH MIDDLE TENNESSEE

CITY           SKY/WX    TMP DP  RH WIND       PRES   REMARKS
NASHVILLE      PTSUNNY   27  15  61 N14       30.46R WCI  16
CLARKSVILLE    SUNNY     25   9  50 N15       30.49R WCI  13
SMYRNA         PTSUNNY   26  18  72 N13       30.46R WCI  15
COOKEVILLE     CLOUDY    21  18  86 N8        30.38R WCI  12
CROSSVILLE     CLOUDY    21  17  84 N13       30.30R WCI   9
$$

TNZ061-075-076-078-094-096-097-052300-
SOUTH MIDDLE TENNESSEE

CITY           SKY/WX    TMP DP  RH WIND       PRES   REMARKS
FAYETTEVILLE   CLOUDY    21  18  86 N8          N/A  WCI  12
TULLAHOMA      CLOUDY    21  18  86 N12         N/A  WCI   9
WINCHESTER     CLOUDY    21  19  93 N14       30.38R WCI   8
MCMINNVILLE    CLOUDY    23  19  86 N10       30.39R WCI  12
COLUMBIA       SUNNY     27  19  74 N12       30.41S WCI  16
SHELBYVILLE    PTSUNNY   25  19  80 N12       30.42R WCI  14
$$

TNZ017-018-042-046-047-052300-
NORTHEAST TENNESSEE

CITY           SKY/WX    TMP DP  RH WIND       PRES   REMARKS
TRI CITIES     CLOUDY    27  23  85 N9        30.26R WCI  18
ELIZABETHTON   DRIZZLE   27  25  93 W7        30.24R FOG     WCI  19
$$

TNZ012-013-036-069-073-074-052300-
CENTRAL EAST TENNESSEE

CITY           SKY/WX    TMP DP  RH WIND       PRES   REMARKS
KNOXVILLE      FRZ RAIN  28  23  81 N13       30.32R WCI  17
OAK RIDGE      LGT SNOW  28  23  81 N7        30.35R WCI  21
GATLINBURG     CLOUDY    27  25  93 N5        30.30R WCI  21
MORRISTOWN     CLOUDY    28  27  93 NW7       30.29R WCI  21
$$

TNZ083-085-099-052300-
SOUTHEAST TENNESSEE

CITY           SKY/WX    TMP DP  RH WIND       PRES   REMARKS
CHATTANOOGA    CLOUDY    31  23  72 N16       30.33R WCI  20
$$

SKY/WX REPORTED AS FAIR MEANS FEW OR NO CLOUDS BELOW
12 THOUSAND FEET.




USA.gov is the U.S. government's official web portal to all federal, state and local government web resources and services.